Time,TemperatureF,DewpointF,PressureIn,WindDirection,WindDirectionDegrees,WindSpeedMPH,WindSpeedGustMPH,Humidity,HourlyPrecipIn,Conditions,Clouds,dailyrainin,SoftwareType,DateUTC
2014-02-13 00:22:00,60.0,59.0,29.68,South,185,5.0,-999.0,97,-99.99,,,-99.99,,2014-02-13 05:22:00,
2014-02-13 00:33:00,60.0,59.0,29.68,South,185,5.0,-999.0,97,-99.99,,,-99.99,,2014-02-13 05:33:00,
2014-02-13 00:53:00,61.0,60.0,29.68,SW,220,7.0,-999.0,97,-99.99,,,-99.99,,2014-02-13 05:53:00,
2014-02-13 01:02:00,61.0,60.0,29.68,SW,220,7.0,-999.0,97,-99.99,,,-99.99,,2014-02-13 06:02:00,
2014-02-13 01:22:00,61.0,60.0,29.67,SSW,207,7.0,-999.0,96,-99.99,,,-99.99,,2014-02-13 06:22:00,
2014-02-13 01:32:00,61.0,60.0,29.67,SSW,207,7.0,-999.0,96,-99.99,,,-99.99,,2014-02-13 06:32:00,
2014-02-13 01:42:00,61.0,60.0,29.67,SSW,207,7.0,-999.0,96,-99.99,,,-99.99,,2014-02-13 06:42:00,
2014-02-13 01:53:00,62.0,61.0,29.67,SW,216,9.0,-999.0,95,-99.99,,,-99.99,,2014-02-13 06:53:00,
2014-02-13 02:02:00,62.0,61.0,29.67,SW,216,9.0,-999.0,95,-99.99,,,-99.99,,2014-02-13 07:02:00,
2014-02-13 02:12:00,62.0,61.0,29.67,SW,216,9.0,-999.0,95,-99.99,,,-99.99,,2014-02-13 07:12:00,
2014-02-13 02:22:00,63.0,61.0,29.68,WSW,247,12.0,-999.0,94,-99.99,,,-99.99,,2014-02-13 07:22:00,
2014-02-13 02:32:00,63.0,61.0,29.68,WSW,247,12.0,-999.0,94,-99.99,,,-99.99,,2014-02-13 07:32:00,
2014-02-13 02:42:00,63.0,61.0,29.68,WSW,247,12.0,-999.0,94,-99.99,,,-99.99,,2014-02-13 07:42:00,
2014-02-13 02:53:00,63.0,61.0,29.68,WSW,247,12.0,-999.0,94,-99.99,,,-99.99,,2014-02-13 07:53:00,
2014-02-13 03:52:00,61.0,58.0,29.68,WNW,292,9.0,-999.0,89,-99.99,,,-99.99,,2014-02-13 08:52:00,
2014-02-13 04:12:00,60.0,56.0,29.69,WNW,296,8.0,-999.0,88,-99.99,,,-99.99,,2014-02-13 09:12:00,
2014-02-13 04:22:00,60.0,56.0,29.69,WNW,296,8.0,-999.0,88,-99.99,,,-99.99,,2014-02-13 09:22:00,
2014-02-13 04:33:00,60.0,56.0,29.69,WNW,296,8.0,-999.0,88,-99.99,,,-99.99,,2014-02-13 09:33:00,
2014-02-13 05:13:00,58.0,54.0,29.71,West,263,11.0,-999.0,85,-99.99,,,-99.99,,2014-02-13 10:13:00,
2014-02-13 05:23:00,58.0,54.0,29.71,West,263,11.0,-999.0,85,-99.99,,,-99.99,,2014-02-13 10:23:00,
2014-02-13 05:33:00,58.0,54.0,29.71,West,263,11.0,-999.0,85,-99.99,,,-99.99,,2014-02-13 10:33:00,
2014-02-13 05:52:00,55.0,51.0,29.74,West,259,9.0,-999.0,87,-99.99,,,-99.99,,2014-02-13 10:52:00,
2014-02-13 06:02:00,55.0,51.0,29.74,West,259,9.0,-999.0,87,-99.99,,,-99.99,,2014-02-13 11:02:00,
2014-02-13 06:22:00,54.0,50.0,29.76,WNW,290,11.0,-999.0,85,-99.99,,,-99.99,,2014-02-13 11:22:00,
2014-02-13 06:42:00,54.0,49.0,29.77,WNW,298,11.0,-999.0,83,-99.99,,,-99.99,,2014-02-13 11:42:00,
2014-02-13 06:53:00,54.0,49.0,29.78,WNW,284,10.0,-999.0,83,-99.99,,,-99.99,,2014-02-13 11:53:00,
2014-02-13 07:01:00,54.0,49.0,29.78,WNW,284,10.0,-999.0,83,-99.99,,,-99.99,,2014-02-13 12:01:00,
2014-02-13 07:22:00,53.0,48.0,29.80,West,279,11.0,-999.0,83,-99.99,,,-99.99,,2014-02-13 12:22:00,
2014-02-13 07:32:00,53.0,48.0,29.80,West,279,11.0,-999.0,83,-99.99,,,-99.99,,2014-02-13 12:32:00,
2014-02-13 07:42:00,53.0,48.0,29.80,West,279,11.0,-999.0,83,-99.99,,,-99.99,,2014-02-13 12:42:00,
2014-02-13 07:53:00,53.0,48.0,29.80,West,279,11.0,-999.0,83,-99.99,,,-99.99,,2014-02-13 12:53:00,
2014-02-13 08:22:00,52.0,47.0,29.82,WNW,294,9.0,-999.0,83,-99.99,,,-99.99,,2014-02-13 13:22:00,
2014-02-13 08:32:00,52.0,47.0,29.82,WNW,294,9.0,-999.0,83,-99.99,,,-99.99,,2014-02-13 13:32:00,
2014-02-13 08:42:00,52.0,47.0,29.82,WNW,294,9.0,-999.0,83,-99.99,,,-99.99,,2014-02-13 13:42:00,
2014-02-13 08:52:00,51.0,46.0,29.83,West,269,9.0,-999.0,82,-99.99,,,-99.99,,2014-02-13 13:52:00,
2014-02-13 09:22:00,52.0,46.0,29.84,West,271,11.0,-999.0,80,-99.99,,,-99.99,,2014-02-13 14:22:00,
2014-02-13 09:32:00,52.0,46.0,29.84,West,271,11.0,-999.0,80,-99.99,,,-99.99,,2014-02-13 14:32:00,
2014-02-13 09:42:00,52.0,46.0,29.84,West,271,11.0,-999.0,80,-99.99,,,-99.99,,2014-02-13 14:42:00,
2014-02-13 09:52:00,52.0,45.0,29.84,NW,315,12.0,-999.0,77,-99.99,,,-99.99,,2014-02-13 14:52:00,
2014-02-13 10:12:00,52.0,45.0,29.85,WSW,242,11.0,-999.0,77,-99.99,,,-99.99,,2014-02-13 15:12:00,
2014-02-13 10:22:00,52.0,45.0,29.85,WSW,242,11.0,-999.0,77,-99.99,,,-99.99,,2014-02-13 15:22:00,
2014-02-13 10:43:00,51.0,45.0,29.86,WNW,292,10.0,-999.0,80,-99.99,,,-99.99,,2014-02-13 15:43:00,
2014-02-13 10:54:00,51.0,45.0,29.86,WNW,292,10.0,-999.0,80,-99.99,,,-99.99,,2014-02-13 15:54:00,
2014-02-13 11:03:00,51.0,45.0,29.86,WNW,292,10.0,-999.0,80,-99.99,,,-99.99,,2014-02-13 16:03:00,
2014-02-13 11:53:00,51.0,45.0,29.88,West,271,11.0,-999.0,79,-99.99,,,-99.99,,2014-02-13 16:53:00,
2014-02-13 12:12:00,50.0,43.0,29.88,WNW,294,13.0,-999.0,77,-99.99,,,-99.99,,2014-02-13 17:12:00,
2014-02-13 12:22:00,50.0,43.0,29.88,NW,307,11.0,-999.0,78,-99.99,,,-99.99,,2014-02-13 17:22:00,
2014-02-13 12:52:00,51.0,42.0,29.88,West,278,10.0,-999.0,72,-99.99,,,-99.99,,2014-02-13 17:52:00,
2014-02-13 13:02:00,51.0,42.0,29.88,West,278,10.0,-999.0,72,-99.99,,,-99.99,,2014-02-13 18:02:00,
2014-02-13 13:12:00,51.0,42.0,29.88,West,278,10.0,-999.0,72,-99.99,,,-99.99,,2014-02-13 18:12:00,
2014-02-13 13:22:00,51.0,42.0,29.88,West,277,12.0,-999.0,71,-99.99,,,-99.99,,2014-02-13 18:22:00,
2014-02-13 13:42:00,51.0,41.0,29.87,West,280,12.0,-999.0,69,-99.99,,,-99.99,,2014-02-13 18:42:00,
2014-02-13 13:51:00,54.0,43.0,29.85,SW,221,11.0,-999.0,66,-99.99,,,-99.99,,2014-02-13 18:51:00,
2014-02-13 13:53:00,52.0,42.0,29.87,WSW,248,11.0,-999.0,69,-99.99,,,-99.99,,2014-02-13 18:53:00,
2014-02-13 14:12:00,52.0,42.0,29.85,WNW,302,13.0,-999.0,68,-99.99,,,-99.99,,2014-02-13 19:12:00,
2014-02-13 14:23:00,54.0,43.0,29.85,SW,221,11.0,-999.0,66,-99.99,,,-99.99,,2014-02-13 19:23:00,
2014-02-13 14:33:00,54.0,43.0,29.85,SW,221,11.0,-999.0,66,-99.99,,,-99.99,,2014-02-13 19:33:00,
2014-02-13 15:22:00,54.0,42.0,29.84,WNW,295,10.0,-999.0,63,-99.99,,,-99.99,,2014-02-13 20:22:00,
2014-02-13 15:32:00,54.0,42.0,29.84,WNW,295,10.0,-999.0,63,-99.99,,,-99.99,,2014-02-13 20:32:00,
2014-02-13 15:42:00,54.0,42.0,29.84,WNW,295,10.0,-999.0,63,-99.99,,,-99.99,,2014-02-13 20:42:00,
2014-02-13 15:52:00,55.0,42.0,29.84,WNW,285,9.0,-999.0,62,-99.99,,,-99.99,,2014-02-13 20:52:00,
2014-02-13 16:22:00,55.0,43.0,29.85,WNW,300,8.0,-999.0,63,-99.99,,,-99.99,,2014-02-13 21:22:00,
2014-02-13 16:54:00,54.0,42.0,29.85,NW,304,9.0,-999.0,63,-99.99,,,-99.99,,2014-02-13 21:54:00,
2014-02-13 17:13:00,55.0,42.0,29.85,WNW,290,7.0,-999.0,62,-99.99,,,-99.99,,2014-02-13 22:13:00,
2014-02-13 17:23:00,54.0,41.0,29.86,WNW,292,8.0,-999.0,62,-99.99,,,-99.99,,2014-02-13 22:23:00,
2014-02-13 17:43:00,54.0,41.0,29.87,WNW,282,8.0,-999.0,61,-99.99,,,-99.99,,2014-02-13 22:43:00,
2014-02-13 17:53:00,53.0,41.0,29.87,WNW,289,7.0,-999.0,63,-99.99,,,-99.99,,2014-02-13 22:53:00,
2014-02-13 18:22:00,52.0,41.0,29.88,West,279,8.0,-999.0,65,-99.99,,,-99.99,,2014-02-13 23:22:00,
2014-02-13 18:43:00,52.0,41.0,29.89,NW,312,7.0,-999.0,67,-99.99,,,-99.99,,2014-02-13 23:43:00,
2014-02-13 18:53:00,51.0,42.0,29.90,WSW,257,6.0,-999.0,70,-99.99,,,-99.99,,2014-02-13 23:53:00,
2014-02-13 19:11:00,50.0,41.0,29.90,West,259,8.0,-999.0,71,-99.99,,,-99.99,,2014-02-14 00:11:00,
2014-02-13 19:22:00,50.0,41.0,29.91,WNW,291,7.0,-999.0,72,-99.99,,,-99.99,,2014-02-14 00:22:00,
2014-02-13 19:52:00,48.0,41.0,29.93,West,264,7.0,-999.0,76,-99.99,,,-99.99,,2014-02-14 00:52:00,
2014-02-13 20:22:00,47.0,41.0,29.94,West,273,7.0,-999.0,79,-99.99,,,-99.99,,2014-02-14 01:22:00,
2014-02-13 20:42:00,47.0,41.0,29.94,West,275,8.0,-999.0,80,-99.99,,,-99.99,,2014-02-14 01:42:00,
2014-02-13 20:52:00,47.0,41.0,29.95,NW,304,8.0,-999.0,80,-99.99,,,-99.99,,2014-02-14 01:52:00,
2014-02-13 21:22:00,46.0,41.0,29.97,West,278,4.0,-999.0,81,-99.99,,,-99.99,,2014-02-14 02:22:00,
2014-02-13 21:53:00,45.0,40.0,29.97,West,259,3.0,-999.0,83,-99.99,,,-99.99,,2014-02-14 02:53:00,
2014-02-13 22:22:00,46.0,41.0,29.98,WNW,300,3.0,-999.0,82,-99.99,,,-99.99,,2014-02-14 03:22:00,
2014-02-13 22:44:00,46.0,41.0,29.98,WNW,303,5.0,-999.0,82,-99.99,,,-99.99,,2014-02-14 03:44:00,
2014-02-13 22:54:00,46.0,41.0,29.99,West,263,5.0,-999.0,82,-99.99,,,-99.99,,2014-02-14 03:54:00,
2014-02-13 23:23:00,44.0,40.0,29.99,West,279,2.0,-999.0,86,-99.99,,,-99.99,,2014-02-14 04:23:00,
2014-02-13 23:52:00,46.0,42.0,29.98,WNW,297,3.0,-999.0,87,-99.99,,,-99.99,,2014-02-14 04:52:00,